Probability
0 0 0 0 0 0 0 0 0 0 0 0 0 0 0 0 0 1 4 6 5 4 4 5 7 7 7 8 10 11 13 15 12 8 5 3 2 1 0 0 0 1 2 2
0 0 0 0 0 0 0 0 0 0 0 1 1 0 0 0 1 2 5 8 8 6 6 7 8 8 7 6 8 12 15 15 14 11 8 5 2 0 0 0 0 1 1 2
0 0 0 0 0 0 0 0 0 0 1 2 2 1 1 2 2 4 6 9 10 10 9 10 11 10 7 5 8 13 16 16 16 15 12 8 5 2 1 1 1 1 2 2
0 0 0 0 0 0 0 0 0 0 1 2 2 2 2 4 4 4 6 8 10 12 12 12 14 14 10 8 11 15 17 17 17 16 14 11 8 4 2 2 2 2 2 2
0 0 0 0 0 0 0 0 0 0 0 1 1 2 3 4 4 4 4 7 10 13 13 13 14 15 15 13 14 16 17 18 18 17 15 12 8 5 2 1 2 3 4 3
0 0 0 0 0 0 0 0 0 0 0 0 1 2 3 3 3 4 5 7 10 12 14 15 14 14 16 17 18 19 19 19 19 18 16 13 9 6 4 3 3 5 5 4
0 0 0 0 0 0 0 0 0 0 0 0 0 1 2 3 4 5 6 7 8 10 14 16 15 15 17 20 24 26 25 22 20 20 18 15 12 9 7 7 7 6 7 6
0 0 0 0 0 0 0 0 0 0 0 0 0 0 2 5 7 7 7 7 7 9 13 15 15 17 20 24 28 30 29 26 23 22 20 19 16 12 10 9 8 7 7 9
0 0 0 0 0 0 0 0 0 0 0 0 0 1 3 4 6 7 6 6 9 11 13 15 16 17 20 24 27 27 27 25 23 21 20 19 17 13 10 8 7 7 8 9
0 0 0 0 0 0 0 0 0 0 0 0 0 1 2 2 3 4 4 5 9 13 15 15 16 16 17 20 23 23 22 21 18 17 17 16 15 12 10 10 9 9 9 8
0 0 0 0 0 0 0 0 0 0 0 0 0 0 0 1 2 3 3 5 8 12 16 17 17 17 16 18 21 21 20 17 14 13 13 14 13 12 12 12 11 10 8 6
0 0 0 0 0 0 0 0 0 0 0 0 0 0 0 1 3 5 5 6 7 11 15 17 17 18 18 18 20 21 20 18 15 14 13 13 12 12 13 11 9 7 5 3
0 0 0 0 0 0 0 0 0 0 0 0 0 0 1 3 5 7 8 8 9 10 13 14 16 18 19 19 20 21 21 19 17 16 15 13 12 13 12 10 8 6 4 2
0 0 0 0 0 0 0 0 0 0 0 0 0 0 2 4 6 8 10 11 12 12 11 12 13 16 18 19 20 21 21 19 18 17 17 16 14 12 11 10 8 5 4 3
0 0 0 0 0 0 0 0 0 0 0 0 0 0 1 4 7 8 10 12 14 13 11 11 13 15 17 18 19 20 19 17 17 17 17 17 15 12 10 8 5 3 2 2
0 0 0 0 0 0 0 0 0 0 0 0 0 0 2 6 8 8 9 11 12 12 11 11 13 15 16 17 18 18 16 15 16 16 16 15 15 13 9 5 2 1 0 0
0 0 0 0 0 0 0 0 0 1 1 0 0 1 3 6 8 8 7 8 9 10 10 10 12 14 15 16 17 17 14 13 13 13 14 14 14 13 10 6 2 1 0 0
0 0 0 0 0 0 0 0 1 2 2 1 1 3 4 6 7 6 5 6 7 9 10 10 10 12 13 15 17 17 15 12 10 11 12 12 12 12 11 8 5 2 1 1
0 0 0 0 0 0 0 0 1 2 3 3 3 5 7 8 7 4 2 4 6 9 11 12 12 13 14 15 15 16 15 12 10 9 9 9 8 9 10 9 7 4 2 2
0 0 0 0 0 0 0 0 1 2 3 4 5 7 9 9 6 2 1 3 6 10 14 16 16 16 16 15 13 13 13 12 9 8 8 6 5 6 7 8 7 5 3 3
0 0 0 0 0 0 0 1 1 3 3 4 6 8 8 7 3 2 2 4 7 12 17 18 17 17 16 15 13 12 11 9 7 6 6 5 4 4 4 5 5 4 3 3
0 0 0 0 0 0 0 1 2 3 3 3 5 5 5 3 2 2 3 5 8 12 15 16 15 14 13 13 13 12 10 8 5 4 4 4 3 2 1 1 3 3 3 3
0 0 0 0 0 0 0 1 2 2 2 2 3 3 3 3 4 4 4 5 6 8 10 12 10 10 11 12 14 13 12 9 5 3 3 2 2 1 0 0 1 2 3 3
0 0 0 0 0 0 1 1 2 2 1 1 2 3 4 5 6 6 5 4 4 5 6 7 7 8 10 12 13 12 11 9 6 3 2 1 1 1 1 1 1 2 3 4
0 0 0 0 0 1 2 3 3 2 1 1 2 4 5 6 7 7 6 4 3 3 3 4 6 8 9 10 9 9 9 8 6 4 2 1 2 2 2 2 2 3 4 4
0 0 0 0 0 1 2 3 3 2 1 2 3 5 6 6 6 6 6 4 2 1 2 3 5 7 8 7 6 6 7 7 6 5 3 2 2 3 3 3 3 2 3 3
Wind_Speed
3 4 2 5 6 5 3 2 2 4 2 0 2 4 4 2 3 4 5 5 6 8 6 4 5 5 5 5 6 7 6 5 4 3 2 2 1 0 0 0 0 0 0 1
4 2 5 3 3 2 2 1 2 4 2 0 1 3 4 3 5 7 7 7 7 5 4 4 5 5 6 6 7 7 7 6 5 4 2 2 2 1 1 0 0 0 0 1
5 5 2 4 3 3 3 4 4 3 3 3 1 5 3 3 2 3 5 6 6 7 7 6 6 6 6 6 7 7 7 6 5 4 3 3 2 2 1 1 1 1 0 1
4 3 2 3 3 5 4 5 5 3 1 2 1 2 6 3 3 4 5 5 6 6 6 6 6 6 7 7 6 6 6 6 5 5 5 4 3 2 2 1 1 0 0 0
4 2 3 3 5 6 6 2 2 2 3 0 2 2 7 3 4 6 6 6 6 6 6 7 7 7 6 5 5 6 6 6 5 5 6 5 3 2 1 1 1 0 1 0
4 2 3 5 3 4 3 5 5 5 5 0 3 3 6 3 5 5 4 4 5 4 5 5 4 4 3 4 5 5 6 5 5 5 5 5 4 3 2 1 1 1 1 0
3 3 2 2 1 1 4 6 4 4 3 5 2 3 8 6 4 5 5 4 3 3 3 3 4 4 5 5 6 7 7 6 6 6 6 5 5 4 4 3 2 2 1 1
2 5 3 2 4 4 3 8 8 5 5 4 1 4 7 4 2 2 1 1 2 2 2 3 4 5 5 6 6 7 7 7 6 6 5 4 4 3 2 2 2 2 2 2
4 5 4 2 2 7 5 3 5 7 3 0 4 5 6 2 2 2 1 1 1 2 2 2 2 4 5 5 6 7 7 6 6 6 5 4 3 3 2 2 2 2 2 1
5 3 4 3 3 2 5 7 6 6 5 3 4 4 4 3 2 0 0 1 1 1 2 2 2 3 4 4 4 5 6 6 5 5 5 4 3 3 3 2 2 2 2 1
2 3 4 2 2 3 3 3 5 4 5 6 3 7 5 6 4 3 3 2 2 2 2 2 1 1 2 3 4 4 5 5 4 4 4 4 3 2 2 2 2 2 1 1
1 4 2 5 4 2 4 5 7 5 3 4 4 7 4 3 3 3 3 2 1 1 2 1 1 1 3 3 3 4 5 5 4 4 4 3 3 3 3 2 2 2 2 1
2 4 2 5 4 2 2 2 4 5 5 5 5 7 3 1 0 1 2 1 0 1 1 1 2 2 2 3 3 4 4 4 4 4 4 4 3 3 2 2 2 2 2 2
3 3 5 7 6 3 2 2 3 5 4 5 7 6 4 3 2 2 1 1 1 1 1 2 1 1 1 2 2 3 3 3 4 4 4 4 3 3 2 2 2 2 2 2
4 2 3 4 4 3 3 4 4 5 7 7 7 7 7 5 4 3 1 1 1 1 1 1 1 1 1 2 2 2 3 3 3 4 4 3 3 2 2 2 2 1 1 1
3 2 0 2 2 2 3 4 4 4 4 4 3 5 5 3 1 1 1 2 1 1 1 2 2 2 2 2 3 3 3 3 3 3 3 2 3 3 2 2 2 2 1 1
1 3 2 3 3 2 4 5 4 3 3 5 6 7 2 1 3 4 4 3 3 2 2 2 3 4 3 3 3 3 3 3 3 3 3 2 3 3 2 2 2 1 1 1
5 3 2 1 1 4 7 2 3 3 2 3 4 4 4 4 3 3 3 4 3 2 2 2 3 3 3 3 2 2 3 4 3 2 2 2 3 3 2 2 2 1 1 1
4 6 4 2 2 5 5 2 1 2 3 2 3 2 1 1 2 2 1 2 3 3 2 2 2 3 3 3 3 4 3 3 3 2 2 2 2 3 2 2 2 1 1 1
3 4 4 3 2 5 5 3 2 2 4 3 3 3 2 3 1 4 2 1 1 0 1 1 2 3 4 3 4 4 3 3 2 2 2 2 2 3 3 3 2 1 1 1
2 2 2 3 3 7 5 5 1 3 6 3 3 3 4 4 5 4 1 1 1 0 1 2 4 3 3 4 4 4 3 2 2 2 1 2 2 2 2 1 1 1 2 1
4 3 3 3 3 7 3 2 2 5 3 2 3 3 4 3 2 0 1 1 1 1 2 3 3 3 2 3 4 3 2 2 2 2 2 1 1 1 1 1 1 1 2 2
4 5 4 6 6 4 2 2 3 2 3 3 3 3 3 2 2 1 1 1 1 1 2 3 3 3 2 2 3 3 1 1 2 2 2 1 1 1 1 1 1 1 1 1
2 1 2 3 6 5 5 4 3 2 3 4 3 2 3 3 2 2 1 1 1 1 1 2 3 3 2 1 2 2 2 2 3 3 2 1 1 1 2 1 1 1 1 1
3 2 2 4 5 4 5 3 3 4 4 3 2 0 2 3 3 2 2 2 1 1 1 2 2 3 2 2 1 1 2 3 2 2 2 1 1 1 1 1 0 1 1 2
4 5 5 6 5 3 5 4 3 3 3 2 1 2 1 2 3 2 1 1 1 1 2 2 2 2 2 2 1 1 2 3 3 2 1 1 1 1 1 1 1 2 0 0
Wind_Direction
73 84 183 211 190 180 169 175 260 267 269 138 244 264 273 216 187 202 207 202 203 214 219 203 192 188 179 173 172 178 174 170 157 154 159 158 178 175 48 224 137 138 118 107
51 258 227 192 170 157 163 210 271 299 328 163 269 291 280 218 202 200 200 204 209 210 207 201 195 190 182 182 183 180 178 170 171 173 166 154 139 142 147 43 50 65 101 108
177 232 182 153 161 171 204 196 218 241 345 14 41 331 315 286 253 221 209 205 207 203 206 207 198 197 187 189 188 185 180 174 171 161 132 102 82 64 62 49 6 316 180 149
218 244 167 169 195 162 242 225 199 194 104 302 71 279 290 280 293 245 227 213 216 215 208 203 196 195 195 198 189 178 174 169 166 157 151 149 156 173 195 179 185 316 221 170
232 200 165 199 213 172 212 201 154 158 151 29 1 168 281 301 275 261 238 223 222 212 203 201 200 199 193 185 175 171 164 165 162 160 162 162 171 185 151 111 99 7 324 252
240 236 198 207 210 177 159 75 57 51 77 256 240 174 273 255 246 264 250 235 224 211 203 202 193 172 169 158 158 159 158 164 164 165 165 168 172 173 155 145 164 244 262 285
315 304 271 185 118 39 99 94 43 9 19 248 248 184 249 262 254 237 239 239 220 200 183 179 175 168 170 170 169 163 162 168 174 173 175 178 179 178 181 185 196 211 229 240
191 281 258 200 175 175 167 142 155 184 211 265 280 226 253 270 289 273 227 196 154 140 154 177 184 175 178 182 176 169 170 175 175 177 183 180 173 177 189 191 196 207 221 229
180 249 284 248 192 146 141 168 163 136 150 208 272 280 300 324 10 32 62 91 126 170 170 174 184 177 176 179 179 177 173 173 178 179 173 169 166 170 184 197 198 202 217 214
164 234 287 290 73 43 139 144 106 122 148 217 274 260 245 258 264 1 110 192 226 191 174 169 183 195 186 183 172 168 166 174 178 173 171 167 168 176 178 173 196 208 212 199
134 173 300 7 149 176 90 97 108 122 151 157 222 262 229 214 214 208 222 224 214 190 186 194 204 196 152 150 155 159 159 164 167 165 160 152 159 166 169 174 200 202 203 190
132 126 254 265 260 200 162 159 143 150 205 172 172 260 273 212 211 195 211 230 217 159 165 173 168 132 121 138 159 159 162 164 165 159 152 153 151 157 163 178 197 194 190 184
126 109 46 341 335 12 101 150 148 132 128 160 171 253 295 17 332 222 206 215 175 108 120 125 115 114 131 149 160 157 159 160 154 151 153 155 159 167 175 180 186 176 170 163
105 121 168 198 221 222 241 215 167 135 155 194 211 234 277 293 298 294 271 178 143 131 123 122 122 113 135 153 155 151 150 149 151 153 159 165 172 176 174 163 158 157 156 158
93 157 218 238 247 224 229 232 195 186 185 188 219 220 243 245 243 250 240 153 105 104 107 152 167 162 148 144 143 146 143 139 144 150 162 173 164 152 147 138 141 146 151 157
76 142 173 296 275 258 259 252 220 211 196 204 218 244 248 246 202 250 215 171 162 199 213 197 173 156 152 162 161 152 153 153 149 154 163 160 150 145 144 139 137 130 123 113
114 124 100 275 303 333 268 238 210 202 207 183 208 233 232 217 227 220 209 194 197 216 224 197 182 178 179 177 170 171 163 150 148 152 152 149 150 151 153 151 131 132 130 116
147 126 133 230 23 231 247 247 195 187 230 221 225 225 195 207 231 224 190 187 205 212 211 210 190 177 173 167 154 145 131 133 135 131 138 157 158 159 160 152 157 166 154 154
156 143 134 137 209 272 290 294 166 183 262 240 212 231 184 101 53 327 254 198 209 209 204 206 191 171 154 158 154 132 126 135 135 145 163 166 165 167 168 181 190 176 153 164
86 107 124 143 183 236 253 287 281 148 268 267 197 208 174 107 136 260 266 271 270 235 161 162 146 140 145 155 141 131 133 137 155 180 189 177 169 170 187 201 195 163 150 173
71 71 137 174 217 259 272 300 19 166 244 276 214 204 177 182 213 244 249 285 268 142 124 136 136 145 156 150 139 137 145 172 194 179 161 150 164 175 176 178 174 152 138 114
173 162 185 163 197 255 311 18 182 235 273 262 226 204 191 212 232 209 159 172 172 90 94 121 128 128 126 134 135 139 167 186 158 142 136 127 122 145 123 130 151 142 138 131
193 185 187 194 217 252 265 238 271 275 280 274 246 234 189 199 221 188 148 169 180 121 118 115 121 114 100 115 128 140 181 152 134 129 131 121 91 64 90 139 148 130 139 156
281 139 170 255 266 274 292 293 300 299 290 294 280 240 182 177 183 163 160 170 145 118 119 112 120 125 124 110 118 146 146 130 135 144 144 129 115 83 70 77 135 143 168 183
242 196 222 260 278 309 312 307 312 320 325 335 354 291 186 164 177 175 171 187 173 146 135 129 143 153 163 147 126 123 123 128 148 154 148 143 141 121 86 59 6 200 220 198
212 192 195 236 244 226 273 293 309 306 309 319 352 1 355 168 170 150 149 163 156 152 133 138 149 159 173 149 149 150 138 138 151 158 171 170 159 150 155 147 6 11 310 224